When you browse on this site, cookies collect data to enhance your experience and personalize the content and advertising you see.
Visit our Privacy Policy to learn more. By continuing to use the site, you agree to this use of cookies and data.
  • In Spain
  • List of Countries
  • For 7 days
  • Water Temperature
  • Satellite Maps
  • Weather Map
  • Weather Widgets
  • user-avatar
    Login

    Hourly Weather Shillong

    Today, 17 February, Sunday

    Time Temperature Precipitation Wind Pressure Humidity
    00:00 +8°C° 0 mm 2 mps 630 mmHg 87%
    01:00 +8°C° 0 mm 2 mps 630 mmHg 87%
    02:00 +8°C° 0 mm 2 mps 630 mmHg 87%
    03:00 +8°C° 0 mm 2 mps 629 mmHg 87%
    04:00 +8°C° 0.1 mm 2 mps 630 mmHg 88%
    05:00 +8°C° 0.1 mm 2 mps 630 mmHg 90%
    06:00 +7°C° 0 mm 2 mps 629 mmHg 92%
    07:00 +9°C° 0.1 mm 3 mps 630 mmHg 83%
    08:00 +11°C° 0.1 mm 3 mps 631 mmHg 75%
    09:00 +12°C° 0.1 mm 4 mps 632 mmHg 67%
    10:00 +13°C° 0.3 mm 4 mps 632 mmHg 63%
    11:00 +14°C° 0.3 mm 5 mps 632 mmHg 59%
    12:00 +15°C° 0 mm 4 mps 632 mmHg 57%
    13:00 +14°C° 0.5 mm 4 mps 632 mmHg 57%
    14:00 +14°C° 0.5 mm 4 mps 631 mmHg 57%
    15:00 +14°C° 0.5 mm 4 mps 630 mmHg 57%
    16:00 +12°C° 0.3 mm 3 mps 630 mmHg 65%
    17:00 +11°C° 0.3 mm 3 mps 629 mmHg 72%
    18:00 +9°C° 0.3 mm 2 mps 629 mmHg 80%
    19:00 +9°C° 0 mm 2 mps 629 mmHg 82%
    20:00 +9°C° 0 mm 1 mps 629 mmHg 83%
    21:00 +8°C° 0 mm 1 mps 629 mmHg 85%
    22:00 +8°C° 0 mm 1 mps 629 mmHg 84%
    23:00 +8°C° 0 mm 1 mps 629 mmHg 84%

    Tomorrow, 18 February, Monday

    Time Temperature Precipitation Wind Pressure Humidity
    00:00 +8°C° 0 mm 1 mps 629 mmHg 83%
    01:00 +7°C° 0 mm 1 mps 629 mmHg 84%
    02:00 +7°C° 0 mm 1 mps 629 mmHg 84%
    03:00 +7°C° 0 mm 1 mps 629 mmHg 84%
    04:00 +7°C° 0 mm 1 mps 629 mmHg 85%
    05:00 +7°C° 0 mm 0 mps 629 mmHg 86%
    06:00 +7°C° 0 mm 0 mps 630 mmHg 86%
    07:00 +9°C° 0 mm 0 mps 631 mmHg 80%
    08:00 +11°C° 0 mm 1 mps 632 mmHg 74%
    09:00 +13°C° 0 mm 1 mps 632 mmHg 67%
    10:00 +13°C° 0.1 mm 1 mps 633 mmHg 64%
    11:00 +14°C° 0.1 mm 1 mps 633 mmHg 61%
    12:00 +14°C° 0.1 mm 1 mps 633 mmHg 59%
    13:00 +14°C° 0.1 mm 1 mps 632 mmHg 61%
    14:00 +13°C° 0.1 mm 1 mps 631 mmHg 63%
    15:00 +13°C° 0.1 mm 1 mps 630 mmHg 66%
    16:00 +12°C° 0 mm 1 mps 630 mmHg 70%
    17:00 +11°C° 0 mm 1 mps 630 mmHg 74%
    18:00 +10°C° 0 mm 1 mps 630 mmHg 77%
    19:00 +10°C° 0 mm 1 mps 630 mmHg 80%
    20:00 +9°C° 0 mm 1 mps 630 mmHg 83%
    21:00 +8°C° 0 mm 1 mps 631 mmHg 86%
    22:00 +8°C° 0 mm 1 mps 631 mmHg 85%
    23:00 +8°C° 0 mm 1 mps 631 mmHg 84%

    Day after tomorrow, 19 February, Tuesday

    Time Temperature Precipitation Wind Pressure Humidity
    00:00 +8°C° 0 mm 1 mps 631 mmHg 82%
    01:00 +8°C° 0 mm 1 mps 630 mmHg 82%
    02:00 +7°C° 0 mm 1 mps 630 mmHg 81%
    03:00 +7°C° 0 mm 1 mps 630 mmHg 81%
    04:00 +7°C° 0 mm 1 mps 630 mmHg 80%
    05:00 +7°C° 0 mm 1 mps 630 mmHg 79%
    06:00 +7°C° 0 mm 1 mps 630 mmHg 78%
    07:00 +9°C° 0 mm 1 mps 632 mmHg 70%
    08:00 +12°C° 0 mm 1 mps 633 mmHg 63%
    09:00 +14°C° 0 mm 1 mps 635 mmHg 55%
    10:00 +15°C° 0 mm 1 mps 635 mmHg 53%
    11:00 +16°C° 0 mm 2 mps 635 mmHg 51%
    12:00 +17°C° 0 mm 2 mps 635 mmHg 49%
    13:00 +16°C° 0.1 mm 2 mps 635 mmHg 51%
    14:00 +16°C° 0.1 mm 2 mps 634 mmHg 53%
    15:00 +16°C° 0.1 mm 2 mps 633 mmHg 55%
    16:00 +14°C° 0 mm 1 mps 633 mmHg 60%
    17:00 +13°C° 0 mm 1 mps 633 mmHg 66%
    18:00 +11°C° 0 mm 1 mps 632 mmHg 72%
    19:00 +11°C° 0 mm 1 mps 632 mmHg 76%
    20:00 +10°C° 0 mm 1 mps 633 mmHg 80%
    21:00 +8°C° 0 mm 0 mps 633 mmHg 83%
    22:00 +9°C° 0 mm 1 mps 633 mmHg 82%
    23:00 +9°C° 0 mm 1 mps 633 mmHg 82%

    20 February, Wednesday

    Time Temperature Precipitation Wind Pressure Humidity
    00:00 +9°C° 0 mm 1 mps 633 mmHg 81%
    01:00 +9°C° 0 mm 1 mps 632 mmHg 80%
    02:00 +8°C° 0 mm 1 mps 632 mmHg 79%
    03:00 +8°C° 0 mm 1 mps 632 mmHg 78%
    04:00 +8°C° 0 mm 1 mps 632 mmHg 79%
    05:00 +8°C° 0 mm 1 mps 632 mmHg 80%
    06:00 +8°C° 0 mm 1 mps 632 mmHg 80%
    07:00 +10°C° 0 mm 1 mps 633 mmHg 72%
    08:00 +13°C° 0 mm 1 mps 635 mmHg 63%
    09:00 +15°C° 0 mm 1 mps 637 mmHg 54%
    10:00 +16°C° 0 mm 2 mps 637 mmHg 50%
    11:00 +17°C° 0 mm 3 mps 637 mmHg 45%
    12:00 +18°C° 0 mm 3 mps 637 mmHg 40%
    13:00 +19°C° 0 mm 3 mps 637 mmHg 40%
    14:00 +19°C° 0 mm 3 mps 636 mmHg 40%
    15:00 +19°C° 0 mm 3 mps 635 mmHg 40%
    16:00 +16°C° 0 mm 2 mps 635 mmHg 49%
    17:00 +14°C° 0 mm 1 mps 634 mmHg 59%
    18:00 +11°C° 0 mm 0 mps 633 mmHg 68%
    19:00 +10°C° 0 mm 0 mps 634 mmHg 73%
    20:00 +11°C° 0 mm 1 mps 634 mmHg 77%
    21:00 +10°C° 0 mm 1 mps 635 mmHg 81%
    22:00 +10°C° 0 mm 1 mps 635 mmHg 82%
    23:00 +10°C° 0 mm 1 mps 635 mmHg 82%

    21 February, Thursday

    Time Temperature Precipitation Wind Pressure Humidity
    00:00 +10°C° 0 mm 1 mps 634 mmHg 83%
    01:00 +9°C° 0 mm 1 mps 634 mmHg 84%
    02:00 +9°C° 0 mm 1 mps 634 mmHg 84%
    03:00 +9°C° 0 mm 1 mps 633 mmHg 85%
    04:00 +9°C° 0 mm 1 mps 633 mmHg 85%
    05:00 +8°C° 0 mm 1 mps 633 mmHg 86%
    06:00 +7°C° 0 mm 0 mps 633 mmHg 86%
    07:00 +11°C° 0 mm 1 mps 635 mmHg 77%
    08:00 +13°C° 0 mm 1 mps 636 mmHg 68%
    09:00 +15°C° 0 mm 1 mps 637 mmHg 58%
    10:00 +18°C° 0 mm 1 mps 637 mmHg 54%
    11:00 +20°C° 0 mm 1 mps 637 mmHg 49%
    12:00 +21°C° 0 mm 1 mps 638 mmHg 44%
    13:00 +21°C° 0 mm 1 mps 637 mmHg 46%
    14:00 +20°C° 0 mm 1 mps 636 mmHg 48%
    15:00 +19°C° 0 mm 1 mps 635 mmHg 50%
    16:00 +18°C° 0 mm 1 mps 634 mmHg 57%
    17:00 +15°C° 0 mm 1 mps 633 mmHg 63%
    18:00 +12°C° 0 mm 0 mps 633 mmHg 70%
    19:00 +12°C° 0 mm 0 mps 633 mmHg 73%
    20:00 +12°C° 0 mm 1 mps 633 mmHg 77%
    21:00 +11°C° 0 mm 1 mps 633 mmHg 81%
    22:00 +11°C° 0 mm 1 mps 633 mmHg 82%
    23:00 +11°C° 0 mm 1 mps 633 mmHg 82%

    22 February, Friday

    Time Temperature Precipitation Wind Pressure Humidity
    00:00 +11°C° 0 mm 1 mps 632 mmHg 83%
    01:00 +10°C° 0 mm 1 mps 632 mmHg 83%
    02:00 +9°C° 0 mm 0 mps 631 mmHg 83%
    03:00 +9°C° 0 mm 0 mps 631 mmHg 83%
    04:00 +9°C° 0 mm 0 mps 631 mmHg 83%
    05:00 +9°C° 0 mm 0 mps 631 mmHg 82%
    06:00 +10°C° 0 mm 1 mps 631 mmHg 82%
    07:00 +12°C° 0 mm 1 mps 632 mmHg 73%
    08:00 +15°C° 0 mm 1 mps 634 mmHg 64%
    09:00 +18°C° 0 mm 1 mps 635 mmHg 55%
    10:00 +19°C° 0 mm 1 mps 635 mmHg 51%
    11:00 +21°C° 0 mm 1 mps 635 mmHg 46%
    12:00 +22°C° 0 mm 1 mps 635 mmHg 41%
    13:00 +21°C° 0 mm 2 mps 635 mmHg 42%
    14:00 +21°C° 0 mm 2 mps 634 mmHg 42%
    15:00 +21°C° 0 mm 2 mps 633 mmHg 42%
    16:00 +19°C° 0 mm 2 mps 633 mmHg 50%
    17:00 +16°C° 0 mm 1 mps 632 mmHg 58%
    18:00 +14°C° 0 mm 1 mps 631 mmHg 67%
    19:00 +14°C° 0 mm 1 mps 631 mmHg 70%
    20:00 +13°C° 0 mm 1 mps 632 mmHg 72%
    21:00 +12°C° 0 mm 1 mps 632 mmHg 75%
    22:00 +12°C° 0 mm 1 mps 632 mmHg 75%
    23:00 +12°C° 0 mm 1 mps 631 mmHg 76%
    Show more